Regional Weather Roundup
Issued by NWS Sioux Falls, SD

Home | Current Version | Previous Version | Text Only | Print | Product List | Glossary Off
Versions: 1 2 3 4 5 6 7 8 9 10 11 12 13 14 15 16 17 18 19 20 21 22 23 24 25 26 27 28 29 30 31 32 33 34 35 36 37 38 39 40 41 42 43 44 45 46 47 48 49 50

000
ASUS43 KFSD 241810
RWRFSD

WEATHER ROUNDUP FOR SE SOUTH DAKOTA/SW MINNESOTA/NW IOWA
NATIONAL WEATHER SERVICE SIOUX FALLS SD
1200 PM CST SAT JAN 24 2015

NOTE: "FAIR" INDICATES FEW OR NO CLOUDS BELOW 12,000 FEET WITH NO
SIGNIFICANT WEATHER AND OR OBSTRUCTIONS TO VISIBILITY.


SDZ038>040-050-052>070-241900-
SOUTHEAST SOUTH DAKOTA

CITY           SKY/WX    TMP DP  RH WIND       PRES   REMARKS
CHAMBERLAIN    CLOUDY    43  30  61 W16       29.71F
6HR MIN TEMP:  31; 6HR MAX TEMP:  43;

HURON          CLOUDY    40  33  76 W8        29.67F
6HR MIN TEMP:  28; 6HR MAX TEMP:  40;

MADISON        FAIR      36  36 100 W10       29.67F
MITCHELL       CLOUDY    42  31  64 W12       29.70F
6HR MIN TEMP:  32; 6HR MAX TEMP:  42;

SIOUX FALLS    CLOUDY    39  30  70 W6        29.69F
6HR MIN TEMP:  29; 6HR MAX TEMP:  39;

WINNER         CLOUDY    52  28  39 W14       29.75F
YANKTON        CLOUDY    43  28  56 W15       29.74F
$$

MNZ071-072-080-081-089-090-097-098-241900-
SOUTHWEST MINNESOTA

CITY           SKY/WX    TMP DP  RH WIND       PRES   REMARKS
FAIRMONT       SUNNY     41  27  56 SW10      29.67F
JACKSON        SUNNY     37  32  81 W10       29.68F
LUVERNE        PTSUNNY   37  32  81 W9        29.69F
MARSHALL       PTSUNNY   37  28  70 W9        29.66F
6HR MIN TEMP:  30; 6HR MAX TEMP:  37;

MONTEVIDEO     PTSUNNY   37  32  81 NW3       29.65F
PIPESTONE      CLOUDY    36  32  87 W9        29.65F
REDWOOD FALLS  SUNNY     39  32  76 W14       29.65F
TRACY          MOSUNNY   38  32  79 W10       29.65F
WINDOM         SUNNY     37  34  87 SW10      29.67F
WORTHINGTON    MOSUNNY   36  30  80 W12       29.68F
$$

IAZ001>003-012>014-020>022-031-032-NEZ013-014-SDZ071-241900-
NORTHWEST IOWA

CITY           SKY/WX    TMP DP  RH WIND       PRES   REMARKS
CHEROKEE       FAIR      42  34  72 SW8       29.73F
DENISON        SUNNY     46  32  57 W9G16     29.75F
ESTHERVILLE    SUNNY     37  32  82 SW15      29.69F
LE MARS        MOSUNNY   43  32  65 W10       29.73F
ORANGE CITY    MOSUNNY   41  34  75 W13       29.71F
SHELDON        SUNNY     37  34  87 W14       29.70F
SIOUX CITY     PTSUNNY   47  32  56 W9        29.75F
6HR MIN TEMP:  28; 6HR MAX TEMP:  47;

SPENCER        MOSUNNY   39  32  76 W14       29.71F
6HR MIN TEMP:  26; 6HR MAX TEMP:  39;

STORM LAKE     MOSUNNY   41  34  75 W15       29.73F
$$

ABBREVIATIONS USED IN REMARKS
   TC - TEMPERATURE IN CELSIUS
  WCI - WIND CHILL INDEX
   HX - HEAT INDEX
  VSB - VISIBILITY




USA.gov is the U.S. government's official web portal to all federal, state and local government web resources and services.